Temperature
8 8 7 7 7 7 7 7 7 6 6 6 6 6 5 5 5 5 5 4 4 4 4 4 4 3 3 3 3 3 2 2 1 2 3 3 3 2 2 2 2 3 3
7 7 7 7 7 7 7 7 6 6 6 6 5 5 5 5 5 4 4 4 4 4 4 3 3 3 3 3 3 2 2 1 1 1 2 2 2 2 2 2 2 2 2
7 7 6 6 6 6 6 6 6 6 6 5 5 5 5 5 5 4 4 4 4 3 3 3 3 3 3 3 2 2 2 1 1 1 1 1 1 1 1 1 2 2 2
6 6 6 6 6 6 6 6 6 5 5 5 5 5 5 4 4 4 4 4 3 3 3 3 3 2 2 2 2 1 1 1 1 1 1 1 1 1 1 1 1 1 1
6 6 6 6 5 5 5 5 5 5 5 5 5 4 4 4 4 4 4 3 3 3 3 2 2 2 2 2 1 1 1 0 0 0 0 0 0 0 0 0 0 0 1
5 5 5 5 5 5 5 5 5 4 4 4 4 4 4 4 4 3 3 3 3 3 2 2 2 2 2 1 1 1 0 -0 -0 -0 -0 -0 -0 -0 -0 -0 -1 -1 -0
5 5 5 4 4 4 4 4 4 4 4 4 4 4 4 4 3 3 3 3 3 2 2 2 2 2 1 1 1 1 0 -0 -0 -1 -1 -1 -0 -0 -1 -1 -1 -1 -1
4 4 4 4 4 4 4 4 4 4 4 4 3 3 3 3 3 3 3 2 2 2 2 1 1 1 1 0 0 0 0 -0 -0 -1 -1 -1 -1 -1 -1 -1 -1 -1 -0
4 4 4 4 3 3 3 3 3 3 3 3 3 3 3 3 3 2 2 2 2 2 2 1 1 1 0 -0 -0 -0 -0 -0 -1 -1 -1 -1 -1 -1 -1 -1 -1 -1 -1
3 3 3 3 3 3 3 3 3 3 3 3 3 3 2 2 2 2 2 2 1 1 1 1 0 0 -0 -0 -1 -1 -1 -1 -1 -1 -1 -0 -1 -1 -1 -1 -2 -2 -2
3 3 3 2 2 2 2 2 2 2 2 2 2 2 2 2 2 1 1 1 1 1 1 0 0 -0 -0 -1 -1 -1 -1 -1 -1 -1 -1 -1 -1 -1 -1 -1 -1 -2 -2
2 2 2 2 2 2 2 2 2 2 2 2 2 2 1 1 1 1 1 0 0 0 0 -0 -0 -0 -1 -1 -1 -1 -1 -1 -1 -1 -1 -2 -2 -2 -2 -2 -2 -2 -2
2 2 1 1 1 1 1 1 1 1 1 1 1 1 1 1 0 0 0 0 -0 -0 -1 -1 -1 -1 -1 -1 -1 -1 -2 -2 -2 -2 -2 -2 -2 -2 -2 -2 -2 -2 -2
1 1 1 1 1 1 1 1 1 1 1 1 0 0 0 -0 -0 -0 -0 -0 -1 -1 -1 -1 -1 -1 -1 -1 -2 -2 -2 -2 -2 -2 -2 -3 -3 -2 -2 -2 -2 -2 -2
0 0 0 0 0 0 0 0 0 0 0 -0 -0 -0 -1 -1 -1 -1 -1 -1 -1 -1 -1 -1 -1 -1 -2 -2 -2 -2 -2 -2 -2 -3 -3 -3 -3 -3 -3 -3 -3 -3 -3
-0 -0 -0 -1 -1 -0 -0 -0 -0 -0 -0 -1 -1 -1 -1 -1 -1 -1 -1 -1 -1 -2 -2 -2 -2 -2 -2 -2 -2 -2 -3 -3 -3 -3 -3 -3 -3 -3 -3 -3 -3 -3 -3
-1 -1 -1 -1 -1 -1 -1 -1 -1 -1 -1 -1 -1 -1 -2 -2 -2 -2 -2 -2 -2 -2 -2 -2 -3 -3 -3 -3 -3 -3 -3 -3 -3 -3 -3 -3 -4 -4 -3 -3 -3 -3 -3
-1 -1 -1 -1 -1 -1 -1 -2 -2 -2 -2 -2 -2 -2 -2 -2 -2 -2 -2 -2 -2 -2 -3 -3 -3 -3 -3 -3 -3 -3 -3 -3 -4 -4 -4 -4 -4 -4 -4 -4 -4 -4 -3
-2 -2 -2 -2 -2 -2 -2 -2 -2 -2 -2 -2 -2 -2 -2 -2 -2 -2 -2 -3 -3 -3 -3 -3 -3 -4 -3 -3 -3 -3 -4 -4 -4 -4 -4 -4 -4 -4 -4 -4 -4 -4 -4
-3 -3 -3 -3 -3 -3 -3 -3 -3 -3 -3 -3 -3 -3 -3 -3 -3 -3 -3 -3 -3 -4 -4 -4 -4 -4 -4 -4 -4 -4 -4 -4 -4 -4 -4 -4 -4 -4 -4 -4 -4 -4 -4
-3 -3 -3 -3 -3 -3 -3 -3 -3 -3 -3 -3 -3 -4 -4 -4 -4 -4 -4 -4 -4 -4 -4 -4 -4 -4 -4 -4 -4 -4 -4 -4 -4 -4 -4 -4 -4 -4 -4 -4 -4 -4 -4
-4 -4 -4 -4 -4 -4 -4 -4 -4 -4 -4 -4 -4 -4 -4 -4 -4 -4 -4 -4 -4 -4 -5 -5 -4 -4 -4 -4 -4 -4 -4 -4 -4 -4 -4 -4 -4 -4 -4 -4 -4 -4 -4
-4 -4 -4 -4 -4 -4 -4 -4 -4 -4 -4 -4 -4 -4 -4 -4 -4 -5 -5 -5 -5 -5 -5 -5 -5 -4 -4 -4 -4 -4 -4 -4 -4 -4 -4 -4 -4 -4 -4 -4 -4 -4 -4
-5 -5 -5 -5 -5 -5 -5 -5 -5 -5 -5 -5 -5 -5 -5 -5 -5 -5 -5 -5 -5 -5 -5 -5 -5 -5 -5 -4 -4 -4 -4 -4 -4 -4 -5 -5 -4 -4 -4 -4 -4 -4 -4
-5 -5 -5 -5 -5 -5 -5 -5 -5 -5 -5 -5 -5 -5 -5 -5 -5 -5 -5 -5 -5 -5 -5 -5 -5 -5 -5 -5 -5 -4 -4 -4 -4 -4 -4 -4 -4 -4 -4 -4 -4 -4 -4
-6 -6 -6 -6 -6 -5 -5 -5 -5 -5 -5 -5 -5 -5 -5 -5 -5 -5 -6 -6 -5 -5 -5 -5 -5 -5 -5 -5 -4 -4 -4 -4 -4 -4 -4 -4 -4 -4 -4 -4 -4 -4 -4
Wind_Speed
6 5 5 5 4 4 4 4 4 3 3 3 2 2 2 2 2 2 3 3 3 4 4 4 5 5 5 4 4 4 4 5 9 10 8 8 8 9 10 10 11 10 11
5 5 4 4 4 4 4 3 3 3 3 2 2 2 2 2 2 3 3 3 4 4 5 5 6 5 6 5 4 5 5 5 7 11 11 9 9 9 9 9 10 10 9
4 5 4 4 4 4 3 3 3 2 2 2 2 2 2 2 3 3 3 4 4 5 5 5 6 5 7 5 5 5 5 6 5 8 10 9 8 8 9 9 9 8 9
4 5 4 4 4 3 3 2 2 2 2 2 2 2 2 2 3 3 3 4 4 4 4 5 5 6 7 6 6 6 6 6 6 7 8 8 8 8 7 8 9 7 8
4 4 4 3 3 2 2 2 1 1 1 1 1 1 2 2 2 3 3 4 4 4 4 5 5 7 9 7 6 6 5 6 6 7 8 8 8 8 8 7 10 10 8
3 3 2 3 3 2 2 2 1 1 1 1 1 1 2 2 5 5 4 3 3 4 5 5 6 7 9 10 11 10 8 7 7 7 8 10 11 10 8 8 8 9 8
3 2 2 2 3 2 2 2 1 1 0 0 1 1 2 4 5 6 5 3 3 4 4 5 6 6 8 6 9 10 9 10 10 8 9 10 11 10 9 9 8 9 8
2 2 2 2 2 2 2 1 1 0 0 0 1 1 2 4 6 5 6 3 3 4 4 5 5 6 6 7 6 6 6 7 8 7 7 9 9 9 8 8 8 8 7
2 2 2 2 2 2 1 1 0 0 0 1 1 1 2 4 6 6 5 2 3 4 5 5 5 5 9 10 6 7 8 7 9 11 12 11 13 13 10 5 5 6 7
1 1 1 2 2 1 1 1 0 0 0 1 1 1 1 3 5 6 6 2 3 4 4 4 6 7 10 10 6 6 7 8 8 9 9 9 9 9 10 6 5 5 5
1 2 2 2 1 1 1 1 1 1 1 1 1 2 2 3 5 6 6 3 3 4 4 4 5 9 10 10 8 5 7 8 6 6 6 6 6 6 6 6 5 4 4
2 2 2 2 1 1 2 1 1 1 1 1 1 2 2 3 4 6 8 6 5 4 4 4 5 9 10 10 7 7 9 8 4 4 5 5 6 6 6 6 6 4 3
3 3 2 2 2 2 1 1 1 1 1 1 1 2 3 3 4 7 8 8 7 4 4 7 8 8 8 6 7 9 7 4 4 4 5 6 5 6 6 5 5 4 4
3 2 2 2 2 2 1 1 1 0 1 1 1 2 3 3 3 4 4 4 6 5 4 5 7 7 6 6 6 6 4 4 4 4 5 5 5 5 5 4 4 4 4
2 2 2 2 2 2 2 2 1 0 1 1 1 2 2 3 5 7 6 4 4 4 4 3 4 4 5 5 5 5 4 5 5 4 4 5 5 5 5 5 4 4 3
2 2 2 2 2 2 2 3 4 3 3 3 2 2 3 4 6 7 7 7 7 6 4 3 4 4 4 5 5 5 5 5 5 5 4 4 5 5 5 5 4 4 4
2 1 1 1 2 2 2 2 3 4 5 5 5 5 5 6 6 7 7 7 6 5 3 3 3 4 4 5 5 5 5 5 5 4 4 4 4 5 4 5 5 4 4
2 2 2 2 2 1 1 1 1 2 3 4 5 6 7 7 7 7 7 5 4 4 3 3 4 4 4 5 5 5 5 5 4 4 4 4 4 4 4 4 4 4 4
2 2 2 2 2 2 2 2 2 2 2 3 3 5 7 7 7 7 7 3 3 3 3 4 4 4 4 4 5 5 5 4 4 4 4 4 4 4 4 4 4 5 4
2 3 3 2 2 2 2 2 2 2 2 3 3 4 4 5 4 5 4 3 3 3 4 4 4 4 4 4 5 5 4 4 4 3 3 4 4 4 4 4 4 4 3
2 2 3 3 2 2 2 2 2 2 2 3 3 4 6 4 3 4 4 4 3 4 4 4 4 5 5 4 4 5 5 4 4 3 3 4 4 4 3 3 4 3 3
2 2 2 2 2 2 2 2 2 2 2 3 3 5 6 4 3 3 4 4 4 4 4 4 4 4 4 4 4 4 4 4 4 3 3 4 4 4 4 3 3 3 2
2 2 2 2 2 2 3 2 2 2 2 3 3 4 4 3 3 3 4 4 4 4 5 5 4 5 5 5 5 4 4 4 4 3 3 4 4 4 3 3 3 3 2
2 2 1 1 1 1 1 2 2 2 2 3 3 3 4 4 4 4 4 4 4 5 5 5 5 6 7 7 6 5 5 5 4 3 4 3 3 3 3 3 2 2 2
2 1 1 1 1 1 1 2 2 3 3 3 3 3 4 4 4 4 4 4 5 5 6 6 6 6 7 8 7 6 7 7 6 4 2 2 2 2 2 2 1 1 2
1 1 1 1 1 1 1 2 2 3 3 3 3 4 4 4 4 4 4 4 5 5 6 6 7 8 9 8 8 7 8 7 6 4 1 0 1 1 1 1 1 1 1
Wind_Direction
171 173 172 180 176 169 178 191 195 194 189 188 201 210 232 255 262 263 269 271 270 276 278 276 276 280 281 274 272 271 266 263 281 294 297 305 306 310 313 314 312 310 308
169 164 166 162 159 167 182 191 188 193 193 195 199 209 235 256 261 255 268 270 266 274 279 280 283 292 285 279 276 276 273 265 272 291 301 306 305 307 308 310 313 312 307
154 153 151 156 164 177 186 188 188 190 189 188 194 215 241 255 259 259 261 263 262 265 271 276 283 288 287 285 283 280 280 284 277 285 296 302 304 307 311 309 308 307 309
144 148 158 173 179 181 178 177 186 185 187 195 210 226 245 260 266 265 269 269 268 269 270 272 277 276 276 281 284 279 285 291 291 290 294 300 302 303 306 313 317 318 314
142 153 172 172 163 155 155 160 165 179 201 205 208 257 274 272 274 281 274 272 274 283 284 282 282 287 290 291 292 289 290 293 296 296 297 303 306 313 314 313 312 315 313
144 154 155 148 148 154 158 152 152 170 193 157 190 257 286 292 301 301 300 277 280 287 293 295 293 290 297 303 303 301 298 296 299 299 301 304 305 307 308 309 311 315 314
135 136 140 147 154 163 156 141 160 187 177 209 286 277 278 291 305 309 311 312 296 293 294 301 305 305 309 303 302 307 304 302 300 297 297 299 303 307 307 305 306 305 298
128 130 137 138 142 144 140 151 167 172 185 260 285 287 292 302 311 312 316 317 298 294 290 290 295 302 307 312 312 311 308 306 305 305 296 299 303 303 300 296 297 301 296
137 139 139 140 138 135 153 169 140 119 333 296 279 283 295 304 316 318 322 312 303 297 295 294 298 300 308 319 321 315 315 317 321 319 319 319 322 321 320 318 313 316 313
162 147 136 135 138 149 179 186 79 131 287 310 317 310 301 302 318 326 329 312 307 307 306 301 309 314 316 322 320 316 317 319 323 325 329 333 329 326 329 323 309 308 309
102 104 95 100 122 135 100 73 92 72 49 8 333 327 320 316 326 333 335 333 305 307 308 307 305 315 319 322 325 316 312 319 321 325 328 331 336 338 336 330 322 309 306
86 90 82 77 78 83 91 61 69 89 72 12 353 341 334 325 338 334 333 331 327 310 305 305 307 316 321 325 330 329 331 336 335 332 333 336 339 337 332 329 325 322 312
86 83 75 66 60 71 101 98 60 63 67 358 355 339 333 337 336 340 337 335 332 325 311 321 327 331 333 334 337 340 346 345 336 337 337 332 327 320 322 325 329 334 336
93 89 82 77 61 50 52 81 89 54 16 358 342 326 328 333 333 332 327 329 335 333 328 334 344 348 352 347 345 347 348 339 336 331 327 324 325 332 336 335 335 343 351
91 94 79 69 79 59 40 33 16 309 240 269 286 296 319 323 325 331 335 334 331 328 338 347 353 353 359 356 351 350 352 351 350 342 336 334 336 342 339 339 341 347 353
90 85 80 74 65 61 50 27 22 20 16 6 351 336 327 324 331 338 341 343 345 350 358 356 353 351 347 344 342 343 346 347 345 341 337 337 339 339 337 340 345 348 349
103 93 82 72 72 62 48 36 14 16 27 24 21 9 359 349 347 346 348 353 360 7 18 2 348 342 339 337 335 335 333 333 335 337 337 340 340 337 336 343 345 345 346
74 72 78 78 74 62 40 25 18 10 1 0 4 9 5 1 358 355 356 6 9 16 9 351 341 337 334 333 332 331 329 334 339 341 340 340 339 336 338 342 343 341 341
63 61 70 71 64 54 41 34 27 18 9 352 351 358 4 3 7 11 14 22 5 353 348 342 336 332 327 328 329 328 329 332 334 337 337 334 334 334 335 338 339 341 347
55 61 60 68 60 49 40 36 30 21 13 4 356 347 345 355 2 4 9 5 359 346 339 334 332 329 327 326 327 328 330 330 334 337 336 333 331 327 325 331 334 339 344
54 55 51 54 48 38 35 33 25 15 8 359 345 341 350 356 349 346 348 349 345 337 332 330 329 327 326 325 326 325 324 324 328 330 329 325 323 321 321 323 324 331 340
55 49 47 48 42 36 32 29 22 11 2 356 343 342 351 356 345 342 340 338 334 327 321 322 323 321 318 318 318 316 315 317 319 319 318 316 314 314 317 320 326 337 347
58 55 48 41 34 33 26 19 12 2 353 347 341 340 342 343 339 337 335 334 333 329 330 328 322 319 324 322 315 305 301 301 299 295 300 303 305 307 311 315 320 337 346
55 54 54 45 36 29 17 6 359 349 343 339 340 341 341 338 334 331 331 331 331 331 332 331 323 318 321 326 321 311 301 295 294 286 279 283 296 305 311 318 324 337 343
61 55 42 31 19 14 11 2 352 344 339 337 338 336 336 335 334 332 330 329 327 326 327 330 328 326 324 323 321 316 314 316 317 311 285 280 287 293 301 315 331 345 351
49 38 27 28 25 12 358 344 338 335 331 332 334 335 333 332 330 329 328 327 327 326 327 330 330 329 328 328 325 324 327 329 332 333 341 303 307 317 330 346 0 11 17
Height
1457 1460 1462 1465 1467 1469 1471 1472 1473 1474 1475 1475 1476 1476 1476 1475 1475 1474 1473 1472 1471 1470 1468 1467 1465 1464 1462 1460 1457 1456 1454 1451 1445 1438 1436 1433 1430 1427 1423 1420 1417 1413 1410
1454 1457 1459 1462 1464 1466 1468 1469 1470 1471 1472 1472 1472 1472 1472 1472 1471 1470 1469 1468 1467 1465 1464 1462 1460 1459 1457 1455 1453 1451 1449 1446 1442 1436 1431 1428 1425 1423 1419 1415 1412 1409 1405
1452 1454 1457 1459 1461 1463 1464 1466 1467 1468 1468 1469 1469 1469 1469 1468 1467 1466 1465 1464 1462 1461 1460 1458 1456 1454 1452 1450 1448 1446 1443 1441 1438 1434 1428 1425 1421 1418 1414 1410 1407 1404 1400
1450 1452 1454 1456 1458 1460 1461 1462 1464 1464 1465 1465 1466 1466 1465 1464 1464 1462 1461 1460 1458 1457 1455 1453 1452 1450 1448 1445 1443 1441 1439 1436 1433 1430 1425 1421 1417 1414 1411 1406 1401 1399 1395
1447 1449 1451 1453 1455 1457 1458 1460 1461 1461 1462 1462 1462 1462 1462 1461 1460 1459 1457 1456 1454 1452 1451 1449 1448 1446 1444 1442 1439 1436 1434 1431 1429 1425 1421 1417 1414 1410 1407 1403 1399 1394 1391
1445 1447 1449 1451 1452 1454 1455 1456 1457 1458 1459 1459 1459 1459 1458 1457 1456 1455 1454 1452 1450 1448 1447 1445 1443 1442 1440 1438 1435 1433 1431 1428 1425 1422 1418 1414 1410 1407 1404 1400 1396 1392 1387
1443 1445 1446 1448 1450 1451 1452 1453 1454 1455 1455 1456 1456 1455 1455 1454 1453 1452 1450 1448 1447 1445 1443 1441 1439 1437 1435 1433 1430 1428 1427 1425 1422 1419 1415 1411 1407 1404 1401 1397 1394 1390 1386
1441 1442 1444 1445 1447 1448 1449 1450 1451 1451 1452 1452 1452 1452 1451 1450 1449 1448 1446 1445 1443 1441 1439 1437 1435 1432 1430 1428 1426 1424 1422 1420 1417 1415 1412 1408 1404 1401 1398 1395 1391 1387 1383
1439 1440 1441 1443 1444 1445 1446 1447 1448 1448 1449 1449 1449 1448 1448 1447 1446 1445 1443 1441 1439 1438 1436 1434 1432 1429 1427 1425 1423 1420 1417 1415 1413 1410 1408 1404 1401 1397 1394 1391 1387 1384 1380
1437 1438 1439 1441 1442 1443 1444 1445 1445 1446 1446 1446 1445 1445 1444 1444 1443 1441 1440 1437 1436 1434 1432 1430 1428 1426 1424 1422 1419 1416 1413 1411 1408 1405 1403 1400 1397 1394 1391 1389 1385 1382 1379
1435 1436 1437 1438 1440 1440 1441 1442 1443 1443 1443 1443 1442 1442 1441 1440 1439 1438 1436 1434 1433 1430 1428 1427 1425 1423 1421 1419 1417 1414 1411 1409 1405 1402 1399 1396 1394 1391 1389 1386 1384 1381 1378
1433 1434 1435 1436 1437 1438 1439 1440 1440 1440 1440 1440 1439 1439 1438 1437 1436 1435 1433 1432 1430 1428 1426 1424 1422 1420 1418 1416 1414 1411 1409 1406 1403 1400 1397 1394 1391 1389 1387 1384 1382 1379 1377
1431 1432 1433 1434 1435 1436 1437 1437 1437 1438 1437 1437 1436 1435 1435 1434 1433 1432 1431 1429 1427 1426 1423 1421 1419 1417 1415 1413 1411 1409 1406 1404 1401 1398 1395 1393 1391 1388 1386 1383 1380 1378 1376
1430 1430 1431 1432 1433 1434 1435 1435 1435 1435 1435 1434 1434 1433 1433 1432 1431 1429 1428 1426 1425 1423 1421 1419 1417 1415 1413 1411 1409 1407 1404 1402 1400 1397 1395 1392 1390 1388 1385 1382 1380 1377 1374
1428 1429 1430 1431 1432 1432 1433 1434 1434 1434 1434 1433 1432 1432 1431 1429 1429 1428 1426 1424 1423 1421 1419 1417 1414 1412 1410 1409 1407 1405 1403 1401 1399 1396 1394 1392 1389 1387 1385 1382 1380 1377 1374
1427 1428 1429 1430 1430 1431 1431 1432 1432 1432 1432 1432 1431 1431 1429 1428 1427 1425 1424 1422 1421 1419 1417 1414 1412 1411 1409 1407 1405 1403 1402 1400 1397 1396 1394 1391 1389 1387 1384 1382 1380 1378 1375
1426 1427 1428 1428 1429 1429 1430 1430 1430 1430 1430 1430 1429 1429 1428 1426 1425 1424 1422 1420 1419 1417 1415 1413 1411 1410 1408 1406 1404 1402 1400 1399 1397 1395 1393 1391 1389 1387 1384 1382 1380 1378 1376
1425 1426 1427 1427 1428 1428 1429 1429 1428 1428 1427 1427 1427 1427 1426 1424 1423 1422 1420 1419 1417 1415 1413 1412 1410 1409 1407 1406 1404 1402 1400 1398 1396 1394 1393 1391 1389 1387 1384 1382 1381 1379 1376
1425 1425 1426 1426 1427 1427 1428 1428 1427 1427 1426 1426 1425 1425 1424 1423 1421 1420 1419 1417 1415 1414 1412 1411 1410 1408 1406 1405 1403 1401 1399 1397 1396 1394 1392 1390 1388 1386 1385 1383 1381 1379 1377
1424 1425 1425 1426 1426 1427 1427 1427 1427 1426 1425 1425 1424 1423 1422 1421 1419 1418 1417 1416 1414 1413 1412 1410 1408 1407 1405 1404 1402 1400 1398 1396 1395 1393 1391 1390 1388 1386 1385 1383 1381 1380 1378
1423 1424 1425 1425 1426 1426 1426 1426 1426 1425 1424 1424 1423 1422 1421 1420 1418 1417 1416 1415 1413 1412 1410 1409 1407 1406 1404 1402 1400 1399 1397 1395 1394 1392 1391 1389 1388 1386 1385 1383 1382 1380 1378
1423 1424 1424 1425 1425 1425 1425 1425 1425 1424 1423 1422 1421 1421 1420 1419 1417 1416 1415 1414 1412 1411 1409 1407 1406 1404 1403 1401 1399 1397 1396 1394 1393 1391 1390 1388 1387 1386 1384 1383 1382 1380 1379
1423 1424 1424 1424 1425 1425 1424 1424 1424 1423 1422 1421 1420 1419 1418 1417 1416 1415 1413 1412 1410 1409 1407 1406 1404 1403 1401 1400 1398 1396 1395 1393 1392 1390 1389 1388 1386 1385 1384 1383 1381 1380 1379
1423 1423 1423 1424 1424 1423 1423 1423 1422 1422 1421 1420 1419 1418 1417 1416 1414 1413 1412 1410 1409 1407 1405 1404 1402 1401 1400 1398 1396 1395 1394 1392 1391 1389 1388 1387 1386 1385 1384 1383 1381 1380 1379
1422 1422 1423 1422 1422 1422 1422 1421 1421 1420 1419 1418 1417 1416 1415 1414 1413 1411 1410 1409 1407 1405 1404 1402 1401 1400 1398 1397 1395 1394 1392 1391 1390 1389 1388 1387 1386 1385 1384 1383 1382 1381 1380
1421 1421 1421 1421 1421 1421 1421 1420 1419 1418 1418 1417 1416 1414 1413 1412 1411 1410 1408 1407 1405 1404 1402 1401 1400 1398 1397 1395 1394 1392 1391 1390 1389 1388 1387 1386 1386 1385 1384 1383 1382 1381 1381